Time,TemperatureF,DewpointF,PressureIn,WindDirection,WindDirectionDegrees,WindSpeedMPH,WindSpeedGustMPH,Humidity,HourlyPrecipIn,Conditions,Clouds,dailyrainin,SoftwareType,DateUTC
2013-03-22 00:03:00,52.0,43.0,29.96,West,265,1.0,-999.0,70,-99.99,,,-99.99,,2013-03-22 04:03:00,
2013-03-22 00:12:00,52.0,43.0,29.96,West,265,1.0,-999.0,70,-99.99,,,-99.99,,2013-03-22 04:12:00,
2013-03-22 00:23:00,51.0,42.0,29.96,West,265,1.0,-999.0,71,-99.99,,,-99.99,,2013-03-22 04:23:00,
2013-03-22 00:32:00,50.0,42.0,29.96,West,265,1.0,-999.0,73,-99.99,,,-99.99,,2013-03-22 04:32:00,
2013-03-22 00:43:00,50.0,42.0,29.96,West,265,1.0,-999.0,73,-99.99,,,-99.99,,2013-03-22 04:43:00,
2013-03-22 00:52:00,50.0,42.0,29.96,West,265,0.0,-999.0,74,-99.99,,,-99.99,,2013-03-22 04:52:00,
2013-03-22 01:02:00,49.0,41.0,29.96,West,265,0.0,-999.0,74,-99.99,,,-99.99,,2013-03-22 05:02:00,
2013-03-22 01:12:00,49.0,41.0,29.96,West,265,0.0,-999.0,74,-99.99,,,-99.99,,2013-03-22 05:12:00,
2013-03-22 01:22:00,49.0,41.0,29.95,West,265,0.0,-999.0,75,-99.99,,,-99.99,,2013-03-22 05:22:00,
2013-03-22 01:32:00,49.0,42.0,29.95,West,265,0.0,-999.0,77,-99.99,,,-99.99,,2013-03-22 05:32:00,
2013-03-22 01:42:00,49.0,42.0,29.95,West,265,0.0,-999.0,77,-99.99,,,-99.99,,2013-03-22 05:42:00,
2013-03-22 01:52:00,49.0,42.0,29.95,West,265,0.0,-999.0,78,-99.99,,,-99.99,,2013-03-22 05:52:00,
2013-03-22 02:02:00,50.0,43.0,29.95,West,280,1.0,-999.0,78,-99.99,,,-99.99,,2013-03-22 06:02:00,
2013-03-22 02:13:00,50.0,43.0,29.95,West,280,1.0,-999.0,78,-99.99,,,-99.99,,2013-03-22 06:13:00,
2013-03-22 02:22:00,52.0,43.0,29.93,WNW,302,2.0,-999.0,72,-99.99,,,-99.99,,2013-03-22 06:22:00,
2013-03-22 02:32:00,51.0,43.0,29.94,WNW,302,0.0,-999.0,73,-99.99,,,-99.99,,2013-03-22 06:32:00,
2013-03-22 02:42:00,51.0,43.0,29.94,WNW,302,0.0,-999.0,73,-99.99,,,-99.99,,2013-03-22 06:42:00,
2013-03-22 02:52:00,51.0,43.0,29.94,WNW,303,2.0,-999.0,74,-99.99,,,-99.99,,2013-03-22 06:52:00,
2013-03-22 03:03:00,52.0,44.0,29.94,NW,304,2.0,-999.0,75,-99.99,,,-99.99,,2013-03-22 07:03:00,
2013-03-22 03:12:00,52.0,44.0,29.94,NW,304,2.0,-999.0,75,-99.99,,,-99.99,,2013-03-22 07:12:00,
2013-03-22 03:22:00,52.0,45.0,29.93,NW,310,2.0,-999.0,77,-99.99,,,-99.99,,2013-03-22 07:22:00,
2013-03-22 03:32:00,51.0,43.0,29.93,NW,312,2.0,-999.0,75,-99.99,,,-99.99,,2013-03-22 07:32:00,
2013-03-22 03:42:00,51.0,43.0,29.93,NW,312,2.0,-999.0,75,-99.99,,,-99.99,,2013-03-22 07:42:00,
2013-03-22 03:52:00,50.0,43.0,29.92,NW,312,2.0,-999.0,78,-99.99,,,-99.99,,2013-03-22 07:52:00,
2013-03-22 04:03:00,50.0,43.0,29.93,NW,312,1.0,-999.0,77,-99.99,,,-99.99,,2013-03-22 08:03:00,
2013-03-22 04:13:00,50.0,43.0,29.93,NW,312,1.0,-999.0,77,-99.99,,,-99.99,,2013-03-22 08:13:00,
2013-03-22 04:22:00,50.0,42.0,29.93,NW,313,2.0,-999.0,74,-99.99,,,-99.99,,2013-03-22 08:22:00,
2013-03-22 04:32:00,50.0,41.0,29.93,North,355,3.0,-999.0,72,-99.99,,,-99.99,,2013-03-22 08:32:00,
2013-03-22 04:42:00,50.0,41.0,29.93,North,355,3.0,-999.0,72,-99.99,,,-99.99,,2013-03-22 08:42:00,
2013-03-22 04:52:00,50.0,41.0,29.93,North,9,4.0,-999.0,70,-99.99,,,-99.99,,2013-03-22 08:52:00,
2013-03-22 05:02:00,50.0,41.0,29.93,North,355,1.0,-999.0,72,-99.99,,,-99.99,,2013-03-22 09:02:00,
2013-03-22 05:12:00,50.0,41.0,29.93,North,355,1.0,-999.0,72,-99.99,,,-99.99,,2013-03-22 09:12:00,
2013-03-22 05:22:00,49.0,41.0,29.93,North,355,0.0,-999.0,74,-99.99,,,-99.99,,2013-03-22 09:22:00,
2013-03-22 05:32:00,49.0,41.0,29.93,North,355,0.0,-999.0,75,-99.99,,,-99.99,,2013-03-22 09:32:00,
2013-03-22 05:42:00,49.0,41.0,29.93,North,355,0.0,-999.0,75,-99.99,,,-99.99,,2013-03-22 09:42:00,
2013-03-22 05:53:00,49.0,41.0,29.93,North,355,0.0,-999.0,75,-99.99,,,-99.99,,2013-03-22 09:53:00,
2013-03-22 06:04:00,48.0,41.0,29.94,North,355,0.0,-999.0,77,-99.99,,,-99.99,,2013-03-22 10:04:00,
2013-03-22 06:12:00,48.0,41.0,29.94,North,355,0.0,-999.0,77,-99.99,,,-99.99,,2013-03-22 10:12:00,
2013-03-22 06:22:00,48.0,42.0,29.94,North,355,1.0,-999.0,80,-99.99,,,-99.99,,2013-03-22 10:22:00,
2013-03-22 06:33:00,48.0,42.0,29.95,North,355,0.0,-999.0,79,-99.99,,,-99.99,,2013-03-22 10:33:00,
2013-03-22 06:42:00,48.0,42.0,29.95,North,355,0.0,-999.0,79,-99.99,,,-99.99,,2013-03-22 10:42:00,
2013-03-22 06:52:00,48.0,42.0,29.95,North,355,2.0,-999.0,80,-99.99,,,-99.99,,2013-03-22 10:52:00,
2013-03-22 07:03:00,48.0,42.0,29.98,North,355,0.0,-999.0,81,-99.99,,,-99.99,,2013-03-22 11:03:00,
2013-03-22 07:12:00,48.0,42.0,29.98,North,355,0.0,-999.0,81,-99.99,,,-99.99,,2013-03-22 11:12:00,
2013-03-22 07:22:00,47.0,42.0,29.99,North,355,1.0,-999.0,83,-99.99,,,-99.99,,2013-03-22 11:22:00,
2013-03-22 07:33:00,47.0,42.0,29.99,North,355,1.0,-999.0,83,-99.99,,,-99.99,,2013-03-22 11:33:00,
2013-03-22 07:42:00,47.0,42.0,29.99,North,355,1.0,-999.0,83,-99.99,,,-99.99,,2013-03-22 11:42:00,
2013-03-22 07:52:00,48.0,43.0,29.99,NNE,22,2.0,-999.0,83,-99.99,,,-99.99,,2013-03-22 11:52:00,
2013-03-22 08:02:00,48.0,41.0,30.00,ENE,66,3.0,-999.0,77,-99.99,,,-99.99,,2013-03-22 12:02:00,
2013-03-22 08:12:00,49.0,41.0,30.01,NE,55,4.0,-999.0,74,-99.99,,,-99.99,,2013-03-22 12:12:00,
2013-03-22 08:22:00,49.0,41.0,30.01,NE,55,4.0,-999.0,74,-99.99,,,-99.99,,2013-03-22 12:22:00,
2013-03-22 08:32:00,49.0,39.0,30.01,NE,53,4.0,-999.0,68,-99.99,,,-99.99,,2013-03-22 12:32:00,
2013-03-22 08:42:00,49.0,39.0,30.01,NE,53,4.0,-999.0,68,-99.99,,,-99.99,,2013-03-22 12:42:00,
2013-03-22 08:52:00,51.0,41.0,30.01,NE,51,3.0,-999.0,68,-99.99,,,-99.99,,2013-03-22 12:52:00,
2013-03-22 09:02:00,53.0,42.0,30.01,East,82,4.0,-999.0,65,-99.99,,,-99.99,,2013-03-22 13:02:00,
2013-03-22 09:12:00,53.0,42.0,30.01,East,82,4.0,-999.0,65,-99.99,,,-99.99,,2013-03-22 13:12:00,
2013-03-22 09:22:00,54.0,42.0,30.01,ENE,78,4.0,-999.0,63,-99.99,,,-99.99,,2013-03-22 13:22:00,
2013-03-22 09:32:00,56.0,43.0,30.02,NE,56,4.0,-999.0,62,-99.99,,,-99.99,,2013-03-22 13:32:00,
2013-03-22 09:42:00,56.0,43.0,30.02,NE,56,4.0,-999.0,62,-99.99,,,-99.99,,2013-03-22 13:42:00,
2013-03-22 09:52:00,57.0,43.0,30.02,ENE,78,5.0,-999.0,59,-99.99,,,-99.99,,2013-03-22 13:52:00,
2013-03-22 10:03:00,59.0,44.0,30.01,ENE,57,6.0,-999.0,57,-99.99,,,-99.99,,2013-03-22 14:03:00,
2013-03-22 10:12:00,59.0,44.0,30.01,ENE,57,6.0,-999.0,57,-99.99,,,-99.99,,2013-03-22 14:12:00,
2013-03-22 10:22:00,61.0,44.0,30.03,ENE,63,7.0,-999.0,53,-99.99,,,-99.99,,2013-03-22 14:22:00,
2013-03-22 10:32:00,62.0,43.0,30.03,East,98,9.0,-999.0,50,-99.99,,,-99.99,,2013-03-22 14:32:00,
2013-03-22 10:42:00,62.0,43.0,30.03,East,98,9.0,-999.0,50,-99.99,,,-99.99,,2013-03-22 14:42:00,
2013-03-22 10:52:00,63.0,43.0,30.02,East,83,8.0,-999.0,48,-99.99,,,-99.99,,2013-03-22 14:52:00,
2013-03-22 11:03:00,64.0,42.0,30.02,ESE,103,8.0,-999.0,45,-99.99,,,-99.99,,2013-03-22 15:03:00,
2013-03-22 11:12:00,64.0,42.0,30.02,ESE,103,8.0,-999.0,45,-99.99,,,-99.99,,2013-03-22 15:12:00,
2013-03-22 11:22:00,66.0,42.0,30.02,ESE,102,6.0,-999.0,42,-99.99,,,-99.99,,2013-03-22 15:22:00,
2013-03-22 11:33:00,66.0,36.0,30.02,ESE,111,7.0,-999.0,33,-99.99,,,-99.99,,2013-03-22 15:33:00,
2013-03-22 11:42:00,66.0,36.0,30.02,ESE,111,7.0,-999.0,33,-99.99,,,-99.99,,2013-03-22 15:42:00,
2013-03-22 11:52:00,67.0,35.0,30.02,SSE,149,5.0,-999.0,31,-99.99,,,-99.99,,2013-03-22 15:52:00,
2013-03-22 12:03:00,67.0,38.0,30.03,East,88,5.0,-999.0,35,-99.99,,,-99.99,,2013-03-22 16:03:00,
2013-03-22 12:13:00,68.0,38.0,30.02,East,90,6.0,-999.0,33,-99.99,,,-99.99,,2013-03-22 16:13:00,
2013-03-22 12:23:00,68.0,38.0,30.02,East,90,6.0,-999.0,33,-99.99,,,-99.99,,2013-03-22 16:23:00,
2013-03-22 12:32:00,68.0,39.0,30.01,ESE,107,5.0,-999.0,35,-99.99,,,-99.99,,2013-03-22 16:32:00,
2013-03-22 12:42:00,71.0,42.0,30.01,ESE,111,3.0,-999.0,35,-99.99,,,-99.99,,2013-03-22 16:42:00,
2013-03-22 12:52:00,71.0,42.0,30.01,ESE,111,3.0,-999.0,35,-99.99,,,-99.99,,2013-03-22 16:52:00,
2013-03-22 13:03:00,71.0,39.0,29.99,East,84,4.0,-999.0,31,-99.99,,,-99.99,,2013-03-22 17:03:00,
2013-03-22 13:12:00,72.0,38.0,29.99,ESE,102,5.0,-999.0,29,-99.99,,,-99.99,,2013-03-22 17:12:00,
2013-03-22 13:23:00,72.0,38.0,29.99,ESE,102,5.0,-999.0,29,-99.99,,,-99.99,,2013-03-22 17:23:00,
2013-03-22 13:32:00,71.0,43.0,29.99,SW,217,5.0,-999.0,36,-99.99,,,-99.99,,2013-03-22 17:32:00,
2013-03-22 13:42:00,71.0,43.0,29.99,SW,217,5.0,-999.0,36,-99.99,,,-99.99,,2013-03-22 17:42:00,
2013-03-22 13:52:00,72.0,44.0,29.98,ESE,116,5.0,-999.0,37,-99.99,,,-99.99,,2013-03-22 17:52:00,
2013-03-22 14:02:00,73.0,44.0,29.98,SSW,199,5.0,-999.0,35,-99.99,,,-99.99,,2013-03-22 18:02:00,
2013-03-22 14:12:00,73.0,44.0,29.98,SSW,199,5.0,-999.0,35,-99.99,,,-99.99,,2013-03-22 18:12:00,
2013-03-22 14:22:00,73.0,45.0,29.98,SSE,161,4.0,-999.0,37,-99.99,,,-99.99,,2013-03-22 18:22:00,
2013-03-22 14:33:00,73.0,44.0,29.97,SSE,163,3.0,-999.0,36,-99.99,,,-99.99,,2013-03-22 18:33:00,
2013-03-22 14:42:00,73.0,44.0,29.97,SSE,163,3.0,-999.0,36,-99.99,,,-99.99,,2013-03-22 18:42:00,
2013-03-22 14:52:00,73.0,44.0,29.96,SSE,159,2.0,-999.0,36,-99.99,,,-99.99,,2013-03-22 18:52:00,
2013-03-22 15:02:00,75.0,45.0,29.95,East,90,3.0,-999.0,34,-99.99,,,-99.99,,2013-03-22 19:02:00,
2013-03-22 15:12:00,75.0,45.0,29.95,East,90,3.0,-999.0,34,-99.99,,,-99.99,,2013-03-22 19:12:00,
2013-03-22 15:22:00,74.0,45.0,29.94,ENE,57,3.0,-999.0,36,-99.99,,,-99.99,,2013-03-22 19:22:00,
2013-03-22 15:32:00,74.0,44.0,29.94,SE,131,3.0,-999.0,34,-99.99,,,-99.99,,2013-03-22 19:32:00,
2013-03-22 15:42:00,74.0,44.0,29.94,SE,131,3.0,-999.0,34,-99.99,,,-99.99,,2013-03-22 19:42:00,
2013-03-22 15:52:00,75.0,45.0,29.93,SSE,159,2.0,-999.0,35,-99.99,,,-99.99,,2013-03-22 19:52:00,
2013-03-22 16:02:00,76.0,47.0,29.92,South,182,5.0,-999.0,36,-99.99,,,-99.99,,2013-03-22 20:02:00,
2013-03-22 16:12:00,76.0,47.0,29.92,South,182,5.0,-999.0,36,-99.99,,,-99.99,,2013-03-22 20:12:00,
2013-03-22 16:22:00,76.0,49.0,29.92,East,101,2.0,-999.0,38,-99.99,,,-99.99,,2013-03-22 20:22:00,
2013-03-22 16:32:00,76.0,47.0,29.91,East,93,4.0,-999.0,36,-99.99,,,-99.99,,2013-03-22 20:32:00,
2013-03-22 16:43:00,76.0,47.0,29.91,East,93,4.0,-999.0,36,-99.99,,,-99.99,,2013-03-22 20:43:00,
2013-03-22 16:52:00,77.0,49.0,29.91,SE,124,3.0,-999.0,37,-99.99,,,-99.99,,2013-03-22 20:52:00,
2013-03-22 17:03:00,76.0,49.0,29.91,South,176,2.0,-999.0,38,-99.99,,,-99.99,,2013-03-22 21:03:00,
2013-03-22 17:12:00,76.0,48.0,29.91,South,171,2.0,-999.0,37,-99.99,,,-99.99,,2013-03-22 21:12:00,
2013-03-22 17:22:00,76.0,48.0,29.91,South,171,2.0,-999.0,37,-99.99,,,-99.99,,2013-03-22 21:22:00,
2013-03-22 17:33:00,75.0,48.0,29.91,South,170,2.0,-999.0,39,-99.99,,,-99.99,,2013-03-22 21:33:00,
2013-03-22 17:43:00,75.0,48.0,29.91,South,170,2.0,-999.0,39,-99.99,,,-99.99,,2013-03-22 21:43:00,
2013-03-22 17:53:00,75.0,48.0,29.90,SE,143,1.0,-999.0,38,-99.99,,,-99.99,,2013-03-22 21:53:00,
2013-03-22 18:03:00,75.0,48.0,29.91,SSE,159,0.0,-999.0,39,-99.99,,,-99.99,,2013-03-22 22:03:00,
2013-03-22 18:12:00,75.0,48.0,29.91,SSE,159,0.0,-999.0,39,-99.99,,,-99.99,,2013-03-22 22:12:00,
2013-03-22 18:23:00,74.0,51.0,29.91,South,182,1.0,-999.0,45,-99.99,,,-99.99,,2013-03-22 22:23:00,
2013-03-22 18:32:00,74.0,52.0,29.92,South,182,0.0,-999.0,46,-99.99,,,-99.99,,2013-03-22 22:32:00,
2013-03-22 18:43:00,74.0,52.0,29.92,South,182,0.0,-999.0,46,-99.99,,,-99.99,,2013-03-22 22:43:00,
2013-03-22 18:52:00,70.0,55.0,29.94,SSW,213,5.0,-999.0,60,-99.99,,,-99.99,,2013-03-22 22:52:00,
2013-03-22 19:02:00,68.0,57.0,29.93,South,180,3.0,-999.0,67,-99.99,,,-99.99,,2013-03-22 23:02:00,
2013-03-22 19:12:00,68.0,57.0,29.93,South,180,3.0,-999.0,67,-99.99,,,-99.99,,2013-03-22 23:12:00,
2013-03-22 19:22:00,67.0,57.0,29.95,SW,223,3.0,-999.0,71,-99.99,,,-99.99,,2013-03-22 23:22:00,
2013-03-22 19:32:00,66.0,59.0,29.94,South,169,2.0,-999.0,77,-99.99,,,-99.99,,2013-03-22 23:32:00,
2013-03-22 19:42:00,66.0,59.0,29.94,South,169,2.0,-999.0,77,-99.99,,,-99.99,,2013-03-22 23:42:00,
2013-03-22 19:52:00,65.0,58.0,29.96,ESE,107,4.0,-999.0,77,-99.99,,,-99.99,,2013-03-22 23:52:00,
2013-03-22 20:02:00,64.0,58.0,29.96,ESE,103,2.0,-999.0,81,-99.99,,,-99.99,,2013-03-23 00:02:00,
2013-03-22 20:12:00,64.0,58.0,29.96,ESE,103,2.0,-999.0,81,-99.99,,,-99.99,,2013-03-23 00:12:00,
2013-03-22 20:23:00,62.0,57.0,29.96,ESE,108,4.0,-999.0,84,-99.99,,,-99.99,,2013-03-23 00:23:00,
2013-03-22 20:33:00,61.0,56.0,29.96,East,85,4.0,-999.0,85,-99.99,,,-99.99,,2013-03-23 00:33:00,
2013-03-22 20:42:00,61.0,57.0,29.97,East,92,3.0,-999.0,87,-99.99,,,-99.99,,2013-03-23 00:42:00,
2013-03-22 20:52:00,61.0,57.0,29.97,East,92,3.0,-999.0,87,-99.99,,,-99.99,,2013-03-23 00:52:00,
2013-03-22 21:03:00,61.0,57.0,29.98,ENE,78,2.0,-999.0,88,-99.99,,,-99.99,,2013-03-23 01:03:00,
2013-03-22 21:12:00,61.0,57.0,29.98,ENE,78,2.0,-999.0,88,-99.99,,,-99.99,,2013-03-23 01:12:00,
2013-03-22 21:22:00,61.0,58.0,29.97,East,80,3.0,-999.0,89,-99.99,,,-99.99,,2013-03-23 01:22:00,
2013-03-22 21:32:00,61.0,58.0,29.97,ENE,72,3.0,-999.0,89,-99.99,,,-99.99,,2013-03-23 01:32:00,
2013-03-22 21:42:00,61.0,58.0,29.97,ENE,72,3.0,-999.0,89,-99.99,,,-99.99,,2013-03-23 01:42:00,
2013-03-22 21:52:00,61.0,57.0,29.98,East,95,3.0,-999.0,88,-99.99,,,-99.99,,2013-03-23 01:52:00,
2013-03-22 22:02:00,61.0,57.0,29.98,ENE,76,2.0,-999.0,88,-99.99,,,-99.99,,2013-03-23 02:02:00,
2013-03-22 22:12:00,61.0,57.0,29.98,ENE,76,2.0,-999.0,88,-99.99,,,-99.99,,2013-03-23 02:12:00,
2013-03-22 22:22:00,61.0,57.0,29.98,East,88,2.0,-999.0,88,-99.99,,,-99.99,,2013-03-23 02:22:00,
2013-03-22 22:32:00,61.0,57.0,29.98,East,84,3.0,-999.0,88,-99.99,,,-99.99,,2013-03-23 02:32:00,
2013-03-22 22:42:00,61.0,57.0,29.98,East,84,3.0,-999.0,88,-99.99,,,-99.99,,2013-03-23 02:42:00,
2013-03-22 22:52:00,61.0,57.0,29.98,East,82,3.0,-999.0,88,-99.99,,,-99.99,,2013-03-23 02:52:00,
2013-03-22 23:02:00,61.0,57.0,29.99,East,80,3.0,-999.0,86,-99.99,,,-99.99,,2013-03-23 03:02:00,
2013-03-22 23:12:00,61.0,57.0,29.99,East,80,3.0,-999.0,86,-99.99,,,-99.99,,2013-03-23 03:12:00,
2013-03-22 23:22:00,61.0,57.0,30.00,ENE,78,2.0,-999.0,87,-99.99,,,-99.99,,2013-03-23 03:22:00,
2013-03-22 23:33:00,61.0,57.0,30.00,East,82,1.0,-999.0,87,-99.99,,,-99.99,,2013-03-23 03:33:00,
2013-03-22 23:43:00,61.0,57.0,30.00,East,82,1.0,-999.0,87,-99.99,,,-99.99,,2013-03-23 03:43:00,
2013-03-22 23:53:00,61.0,57.0,30.00,East,82,0.0,-999.0,88,-99.99,,,-99.99,,2013-03-23 03:53:00,